User: anonymous   Login
Location: Unspecified
(0.0000°N, 0.0000°E)
Time: 05:50:41
(UTC+00:00)
Language:

S-NET A - Orbit

View from above orbital plane
View from above orbital plane
View from above satellite
View from above satellite

Ground track
Ground track

The orbit data is extracted from the following two-line orbital elements,

1 43188U 18014J   20225.46826763 -.00000060  00000-0 -22776-6 0  9999
2 43188  97.6891 132.3966 0011904  42.0989 318.1145 14.96829153138073
Epoch (UTC): 12 August 2020 11:14:18
Eccentricity: 0.0011904
inclination: 97.6891°
perigee height: 568 km
apogee height: 585 km
right ascension of ascending node: 132.3966°
argument of perigee: 42.0989°
revolutions per day: 14.96829153
mean anomaly at epoch: 318.1145°
orbit number at epoch: 13807

The dashed part of the orbit path shows where the satellite is in the earth's shadow,  

DLR